{"data":{"norad_id":68297,"intl_designator":"2026-057D","name":"STARLINK-37115","alt_names":[],"object_type":"PAYLOAD","status":"ACTIVE","operator":null,"country":"US","launch_date":"2026-03-20","launch_site_code":"AFWTR","launch_vehicle":null,"mission":null,"orbit_class":"UNKNOWN","rcs_meters":null,"size_class":null,"mass_kg":null,"dimensions":null,"purposes":["comms"],"wikipedia_slug":null,"has_3d_model":false,"image_url":null,"decayed_at":null,"tle_current":{"epoch":"2026-09-19T06:47:06.994176Z","epoch_age_seconds":157054,"freshness":"FRESH","line1":"1 68297U 26057D   26262.28271984  .00020335  00000+0  63048-3 0  9997","line2":"2 68297  97.2847  27.6476 0001136  92.1323 268.0050 15.33446256 28329","mean_motion":15.33446256,"eccentricity":0.0001136,"inclination_deg":97.2847,"raan_deg":27.6476,"arg_perigee_deg":92.1323,"mean_anomaly_deg":268.005,"bstar":0.00063048,"rev_number":2832,"period_min":93.906127741069,"perigee_km":464.76199586505,"apogee_km":466.31687915165,"semimajor_km":6843.6764375084,"source":"CELESTRAK","updated_at":"2026-09-20T09:00:43.853755Z"}}}